Weather History for KP28 - October, 2013

Change the Weather History Date:

Wednesday, October 23, 2013

  Actual Average Record
Temperature  
Mean Temperature 54 °F 56 °F  
Max Temperature 69 °F 68 °F 93 °F (1939)
Min Temperature 38 °F 43 °F 21 °F (1938)
Degree Days  
Heating Degree Days 11 10  
Month to date heating degree days 174 147  
Since 1 July heating degree days 184 181  
Cooling Degree Days 0 0  
Month to date cooling degree days 45 37  
Year to date cooling degree days 1786 1768  
Growing Degree Days 2 (Base 50)    
Moisture  
Dew Point 41 °F    
Average Humidity 62    
Maximum Humidity 86    
Minimum Humidity 37    
Precipitation  
Precipitation 0.00 in 0.08 in 1.15 in (1943)
Month to date precipitation 0.79 2.21  
Year to date precipitation 23.52 24.66  
Snow  
Snow 0.00 in 0.00 in - ()
Month to date snowfall 0.0 0.0  
Since 1 July snowfall 0.0 0.0  
Since 1 September snowfall 0.0 0.0  
Snow Depth 0.00 in    
Sea Level Pressure  
Sea Level Pressure 30.10 in    
Wind  
Wind Speed 6 mph (SE)    
Max Wind Speed 17 mph    
Max Gust Speed 21 mph    
T = Trace of Precipitation, MM = Missing Value Source: NWS Daily Summary

Daily Weather History Graph

Daily Weather History Graph

Search for Another Location

Airport or City:

Trip Planner

Search our weather history database for the weather conditions in past years. The results will help you decide how hot, cold, wet, or windy it might be!

Date:

Astronomy

Oct. 23, 2013 Rise Set
Actual Time 7:50 AM CDT 6:46 PM CDT
Civil Twilight 7:23 AM CDT 7:12 PM CDT
Nautical Twilight 6:52 AM CDT 7:43 PM CDT
Astronomical Twilight 6:22 AM CDT 8:13 PM CDT
Moon 10:21 PM CDT (10/23) 12:04 PM CDT (10/23)
Length of Visible Light 11h 49m
Length of Day
10h 56m
Waning Gibbous, 79% of the Moon is Illuminated
Oct 23
Waning Gibbous
Oct 26
Last Quarter
Nov 3
New
Nov 9
First Quarter
Nov 17
Full

Hourly Weather History & Observations

Time (CDT) Temp. Windchill Dew Point Humidity Pressure Visibility Wind Dir Wind Speed Gust Speed Precip Events Conditions
12:56 AM 46.9 °F - 39.9 °F 77% 30.09 in - Calm Calm - N/A   Unknown
1:56 AM 46.0 °F 42.5 °F 39.0 °F 76% 30.10 in - ENE 6.9 mph - N/A   Unknown
2:56 AM 43.0 °F - 37.9 °F 82% 30.13 in - Calm Calm - N/A   Unknown
3:56 AM 41.0 °F 38.0 °F 37.0 °F 86% 30.13 in - ENE 4.6 mph - N/A   Unknown
4:56 AM 39.9 °F - - N/A% 30.13 in - Calm Calm - N/A   Unknown
5:56 AM 39.9 °F 36.7 °F - N/A% 30.13 in - East 4.6 mph - N/A   Unknown
6:56 AM 37.9 °F - - N/A% 30.15 in - Calm Calm - N/A   Unknown
7:56 AM 39.9 °F 37.8 °F - N/A% 30.16 in - SSE 3.5 mph - N/A   Unknown
8:56 AM 43.0 °F 40.3 °F - N/A% 30.16 in - ESE 4.6 mph - N/A   Unknown
9:56 AM 46.9 °F - - N/A% 30.16 in - SE 9.2 mph - N/A   Unknown
10:56 AM 51.1 °F - 37.0 °F 59% 30.14 in - SSE 12.7 mph 17.3 mph N/A   Unknown
11:56 AM 53.1 °F - 37.0 °F 55% 30.12 in - SSE 10.4 mph 19.6 mph N/A   Unknown
12:56 PM 57.9 °F - 39.0 °F 49% 30.09 in - SSE 10.4 mph 17.3 mph N/A   Unknown
1:56 PM 62.1 °F - 39.9 °F 44% 30.04 in - South 10.4 mph - N/A   Unknown
2:56 PM 63.0 °F - 39.9 °F 43% 30.01 in - South 12.7 mph - N/A   Unknown
3:56 PM 66.0 °F - 39.9 °F 38% 30.03 in - WSW 8.1 mph - N/A   Unknown
4:56 PM 68.0 °F - 41.0 °F 37% 30.02 in - WSW 4.6 mph - N/A   Unknown
5:56 PM 68.0 °F - 42.1 °F 39% 30.02 in - Calm Calm - N/A   Unknown
6:56 PM 64.0 °F - 42.1 °F 45% 30.04 in - Calm Calm - N/A   Unknown
7:56 PM 55.0 °F - 44.1 °F 67% 30.08 in - NE 4.6 mph - N/A   Unknown
8:56 PM 51.1 °F - 44.1 °F 77% 30.09 in - Calm Calm - N/A   Unknown
9:56 PM 52.0 °F - 45.0 °F 77% 30.11 in - West 3.5 mph - N/A   Unknown
10:56 PM 48.9 °F - 44.1 °F 83% 30.12 in - Calm Calm - N/A   Unknown
11:56 PM 53.1 °F - 43.0 °F 69% 30.14 in - NE 11.5 mph - N/A   Unknown